Change the Weather History Date:

Monday, November 24, 2014

  Actual Average Record
Temperature  
Mean Temperature 30 °F 35 °F  
Max Temperature 41 °F 46 °F 64 °F (1965)
Min Temperature 18 °F 24 °F 4 °F (1931)
Degree Days  
Heating Degree Days 35 30  
Month to date heating degree days 684 588  
Since 1 July heating degree days 1050 1036  
Cooling Degree Days 0 0  
Month to date cooling degree days 0 0  
Year to date cooling degree days 1046 1125  
Moisture  
Dew Point 15 °F    
Average Humidity 57    
Maximum Humidity 84    
Minimum Humidity 30    
Precipitation  
Precipitation T in 0.02 in 0.80 in (1946)
Month to date precipitation 0.39 0.60  
Year to date precipitation 10.90 8.70  
Snow  
Snow T in 0.10 in 2.30 in (1918)
Month to date snowfall T 1.4  
Since 1 July snowfall T 1.8  
Since 1 September snowfall T 1.8  
Snow Depth 0.00 in    
Sea Level Pressure  
Sea Level Pressure 30.29 in    
Wind  
Wind Speed 6 mph (East)    
Max Wind Speed 20 mph    
Max Gust Speed 25 mph    
Visibility 10 miles    
Events      
T = Trace of Precipitation, MM = Missing Value Source: NWS Daily Summary

Daily Weather History Graph

Daily Weather History Graph

Search for Another Location

Airport or City:

Trip Planner

Search our weather history database for the weather conditions in past years. The results will help you decide how hot, cold, wet, or windy it might be!

Date:

Astronomy

Nov. 24, 2014 Rise Set
Actual Time 7:07 AM MST 4:54 PM MST
Civil Twilight 6:38 AM MST 5:23 PM MST
Nautical Twilight 6:05 AM MST 5:56 PM MST
Astronomical Twilight 5:33 AM MST 6:28 PM MST
Moon 9:02 AM MST (11/24) 7:18 PM MST (11/24)
Length of Visible Light 10h 45m
Length of Day
9h 46m
Waxing Crescent, 6% of the Moon is Illuminated
Nov 24
Waxing Crescent
Nov 29
First Quarter
Dec 6
Full
Dec 14
Last Quarter
Dec 21
New

Hourly Weather History & Observations

Time (MST) Temp. Windchill Dew Point Humidity Pressure Visibility Wind Dir Wind Speed Gust Speed Precip Events Conditions
12:53 AM 18.0 °F 11.1 °F 14.0 °F 84% 30.19 in 10.0 mi East 4.6 mph - N/A   Clear
1:53 AM 21.9 °F 13.4 °F 15.1 °F 75% 30.18 in 10.0 mi ENE 6.9 mph - N/A   Clear
2:53 AM 24.1 °F 19.7 °F 15.1 °F 69% 30.17 in 10.0 mi SE 3.5 mph - N/A   Overcast
3:53 AM 25.0 °F 20.7 °F 16.0 °F 69% 30.17 in 10.0 mi East 3.5 mph - N/A   Overcast
4:53 AM 26.1 °F 19.4 °F 15.1 °F 63% 30.17 in 10.0 mi East 5.8 mph - N/A   Overcast
5:53 AM 24.1 °F 17.0 °F 14.0 °F 65% 30.18 in 10.0 mi SE 5.8 mph - N/A   Mostly Cloudy
6:53 AM 19.0 °F 9.0 °F 14.0 °F 81% 30.23 in 10.0 mi East 8.1 mph - N/A   Clear
7:53 AM 24.1 °F 16.0 °F 15.1 °F 69% 30.25 in 10.0 mi East 6.9 mph - N/A   Overcast
8:53 AM 26.1 °F 18.4 °F 17.1 °F 69% 30.26 in 10.0 mi SE 6.9 mph - N/A   Overcast
9:53 AM 30.0 °F - 17.1 °F 59% 30.28 in 10.0 mi Calm Calm - N/A   Overcast
10:53 AM 33.8 °F 29.6 °F 15.8 °F 48% 30.21 in 10.0 mi WSW 4.6 mph - N/A   Partly Cloudy
11:53 AM 35.1 °F 31.0 °F 15.1 °F 44% 30.26 in 10.0 mi West 4.6 mph - N/A   Clear
12:53 PM 37.9 °F 32.7 °F 18.0 °F 45% 30.26 in 10.0 mi NNW 6.9 mph - N/A   Clear
1:53 PM 39.0 °F 31.8 °F 18.0 °F 43% 30.25 in 10.0 mi NW 11.5 mph 19.6 mph N/A   Scattered Clouds
2:53 PM 39.0 °F 32.8 °F 17.1 °F 41% 30.25 in 10.0 mi North 9.2 mph - 0.00 in   Partly Cloudy
3:53 PM 39.9 °F 31.8 °F 10.9 °F 31% 30.28 in 10.0 mi NW 15.0 mph - N/A   Partly Cloudy
4:53 PM 36.0 °F 27.1 °F 10.9 °F 36% 30.32 in 10.0 mi NNW 13.8 mph - N/A   Clear
5:53 PM 32.0 °F 25.6 °F 12.9 °F 45% 30.37 in 10.0 mi North 6.9 mph - N/A   Clear
6:53 PM 28.9 °F 25.2 °F 14.0 °F 54% 30.42 in 10.0 mi South 3.5 mph - N/A   Clear
7:53 PM 27.0 °F - 12.9 °F 56% 30.43 in 10.0 mi Calm Calm - N/A   Clear
8:53 PM 24.1 °F - 15.1 °F 69% 30.45 in 10.0 mi Calm Calm - N/A   Clear
9:53 PM 21.9 °F 11.7 °F 15.1 °F 75% 30.46 in 10.0 mi ESE 9.2 mph - N/A   Clear
10:53 PM 21.0 °F 13.4 °F 16.0 °F 81% 30.47 in 10.0 mi East 5.8 mph - N/A   Clear
11:53 PM 21.0 °F 12.4 °F 16.0 °F 81% 30.48 in 10.0 mi SE 6.9 mph - N/A   Clear